Simultaneous Nadir Overpasses (SNOs) Predictions

Prediction of SNOs between GOES-17 and METOP-B Satellite Orbit:

Table of predicted SNOs for the next 14.0 days since TLE Epoch: 5/2/2025
Index Date Time (GOES-17) GOES-17 Lat,Lon METOP-B Lat,Lon Distance(km) Time Diff (sec)
1 05/03/2025 03:54:31 -0.02,-104.36 0.68,-101.28 350.80 80
2 05/04/2025 16:13:23 0.02,-104.41 0.31,-105.87 165.52 80
3 05/05/2025 15:50:03 0.02,-104.42 -0.78,-100.88 402.85 80
4 05/07/2025 04:11:45 -0.01,-104.38 -0.24,-105.51 128.05 80
5 05/08/2025 03:48:47 -0.01,-104.39 0.86,-100.52 440.63 58
6 05/09/2025 16:09:18 0.01,-104.45 0.18,-105.10 74.83 41
7 05/10/2025 15:46:37 0.01,-104.45 -0.92,-100.11 493.88 80
8 05/12/2025 04:08:18 -0.01,-104.42 -0.08,-104.74 36.86 80
9 05/14/2025 16:06:30 0.01,-104.48 -0.00,-104.34 15.91 80
